Date,TemperatureHighF,TemperatureAvgF,TemperatureLowF,DewpointHighF,DewpointAvgF,DewpointLowF,HumidityHigh,HumidityAvg,HumidityLow,PressureMaxIn,PressureMinIn,WindSpeedMaxMPH,WindSpeedAvgMPH,GustSpeedMaxMPH,PrecipitationSumIn
2013-1-7,33.0,32.2,30.0,22.0,20.4,19.0,64,62,59,30.32,30.27,0,0,0,0.00
2013-1-8,42.0,35.3,23.0,25.0,22.5,19.0,85,61,46,30.22,30.16,4,2,11,0.00
2013-1-9,37.0,31.1,16.0,28.0,23.7,13.0,89,75,65,30.33,30.08,0,0,0,0.00
2013-1-10,43.0,42.1,40.0,27.0,25.4,23.0,59,51,45,30.29,30.18,11,6,21,0.00
2013-1-11,36.0,32.4,21.0,27.0,23.5,18.0,88,70,60,30.47,30.34,0,0,0,0.00
2013-1-12,41.0,39.4,35.0,39.0,37.9,34.0,98,95,92,30.17,30.09,0,0,5,0.00
2013-1-13,40.0,39.3,37.0,40.0,39.3,37.0,99,99,99,30.12,30.02,0,0,0,0.00
2013-1-14,58.0,45.9,34.0,51.0,37.0,27.0,100,72,53,30.18,29.87,5,1,9,0.01
2013-1-15,39.0,32.2,27.0,29.0,26.3,24.0,93,80,55,30.27,30.18,0,0,0,0.01
2013-1-16,31.0,29.2,28.0,29.0,26.6,23.0,95,91,77,30.22,29.76,0,0,0,0.00
2013-1-17,39.0,29.7,21.0,31.0,21.3,2.0,95,73,38,30.09,29.72,7,1,13,0.16
2013-1-18,21.0,14.6,8.0,7.0,-3.0,-12.0,72,47,26,30.37,30.06,5,1,12,0.02
2013-1-19,40.0,27.9,8.0,27.0,17.2,1.0,83,65,47,30.34,29.82,3,0,7,0.04
2013-1-20,49.0,36.9,27.0,31.0,23.3,5.0,85,60,34,29.82,29.41,10,3,21,0.11
2013-1-21,26.0,22.0,16.0,14.0,3.1,-4.0,76,45,29,30.01,29.79,8,2,18,0.02
2013-1-22,25.0,17.2,9.0,13.0,4.6,-6.0,79,58,35,29.98,29.70,5,1,10,0.00
2013-1-23,9.0,3.2,-2.0,-5.0,-14.5,-20.0,58,44,28,30.06,29.96,7,1,15,0.00
2013-1-24,16.0,4.8,-6.0,-9.0,-13.2,-17.0,61,44,25,30.09,29.90,6,2,14,0.00
2013-1-25,21.0,9.3,-5.0,4.0,-4.5,-11.0,75,55,34,30.17,30.01,4,0,11,0.00
2013-1-26,21.0,15.3,7.0,3.0,-1.5,-7.0,67,48,31,30.09,29.93,5,1,12,0.00
2013-1-27,28.0,14.9,4.0,5.0,0.3,-4.0,71,54,32,30.38,30.09,2,0,6,0.00
2013-1-28,28.0,17.1,6.0,18.0,8.0,0.0,89,70,31,30.38,30.02,2,0,5,0.00
2013-1-29,34.0,27.3,21.0,29.0,23.4,18.0,92,85,75,30.18,30.01,0,0,0,0.09
2013-1-30,48.0,39.3,32.0,48.0,38.8,30.0,100,98,94,30.10,29.42,2,0,6,0.35
2013-1-31,48.0,46.3,45.0,48.0,46.3,45.0,100,100,100,29.42,29.41,0,0,0,0.33
2013-5-4,62.0,51.6,38.0,42.0,37.9,34.0,86,62,41,30.35,30.32,4,1,10,0.00
2013-5-5,68.0,46.8,30.0,44.0,35.7,28.0,95,70,40,30.34,30.24,2,0,4,0.00
2013-5-6,47.0,45.7,45.0,44.0,43.3,42.0,94,91,88,30.18,30.17,0,0,0,0.00
2013-5-7,79.0,58.7,43.0,56.0,49.1,42.0,97,75,36,30.17,30.09,4,1,0,0.00
2013-5-8,75.0,60.0,44.0,61.0,53.0,42.0,97,79,58,30.22,30.14,4,1,0,0.00
2013-5-9,63.0,57.0,53.0,59.0,55.2,52.0,98,94,84,30.01,29.90,0,0,0,0.00
2013-5-10,75.0,58.8,52.0,62.0,53.2,-99.9,99,87,59,29.95,29.88,1,0,0,0.00
2013-5-11,67.0,58.9,52.0,62.0,56.7,51.0,98,93,81,29.92,29.68,1,0,0,0.00
2013-5-12,72.0,60.7,58.0,60.0,55.1,-99.9,98,87,45,29.69,29.53,2,0,0,0.00
2013-5-13,59.0,52.3,44.0,34.0,29.6,26.0,64,42,29,30.00,29.84,7,2,15,0.01
2013-5-14,64.0,48.8,36.0,41.0,33.5,25.0,87,59,24,30.01,29.93,4,0,10,0.01
2013-5-15,65.0,49.4,35.0,50.0,36.9,24.0,95,68,24,30.01,29.65,5,1,12,0.01
2013-5-16,80.0,55.6,44.0,53.0,23.7,-99.9,98,59,19,29.78,29.56,5,1,0,0.01
2013-5-17,67.0,57.0,47.0,44.0,34.8,-99.9,76,54,32,30.20,29.78,4,1,0,0.00
2013-5-18,67.0,52.8,41.0,49.0,43.7,38.0,91,73,48,30.32,30.20,4,0,9,0.00
2013-5-19,63.0,52.6,49.0,51.0,48.0,46.0,94,85,65,30.35,30.23,1,0,5,0.01
2013-5-20,75.0,58.6,50.0,64.0,55.4,49.0,98,90,66,30.23,29.92,0,0,3,0.01
2013-5-21,58.0,52.7,49.0,56.0,50.6,48.0,96,92,87,30.05,29.97,0,0,3,0.01
2013-5-22,55.0,52.2,50.0,54.0,50.7,49.0,98,95,90,30.06,29.93,0,0,6,0.01
2013-5-23,64.0,56.3,49.0,62.0,54.9,48.0,98,96,88,29.95,29.79,0,0,4,0.01
2013-5-24,68.0,60.1,50.0,66.0,59.0,49.0,98,97,94,29.83,29.64,4,0,6,0.72
2013-5-25,52.0,48.1,45.0,50.0,46.8,44.0,98,96,88,29.83,29.63,5,1,9,0.49
2013-5-26,55.0,48.8,44.0,44.0,42.6,39.0,98,81,61,29.98,29.57,5,1,10,0.02
2013-5-27,71.0,54.2,39.0,43.0,37.3,31.0,93,59,25,30.15,29.98,5,1,12,0.02
2013-5-28,74.0,56.0,40.0,45.0,39.4,34.0,93,61,26,30.22,30.15,2,0,8,0.00
2013-5-29,59.0,53.6,47.0,58.0,52.0,43.0,97,94,84,30.18,30.00,0,0,0,0.14
2013-5-30,86.0,69.5,55.0,66.0,60.1,54.0,99,77,40,30.01,29.96,4,0,7,0.01
2013-5-31,96.0,76.8,59.0,69.0,63.2,57.0,96,68,35,30.04,29.89,2,0,6,0.00
2013-6-1,97.0,78.8,63.0,68.0,64.5,61.0,93,66,35,29.92,29.81,2,0,6,0.00
2013-6-2,90.0,76.7,67.0,73.0,66.1,-99.9,97,75,46,29.82,29.66,3,0,10,0.61
2013-6-3,81.0,68.9,60.0,67.0,64.3,53.0,99,87,60,29.81,29.70,1,0,5,0.66
2013-6-4,69.0,59.2,50.0,54.0,46.8,42.0,94,66,38,30.06,29.78,4,0,10,0.02
2013-6-5,77.0,58.6,46.0,54.0,46.1,40.0,92,66,34,30.16,30.06,1,0,8,0.00
2013-6-6,72.0,60.0,53.0,55.0,50.7,45.0,92,74,42,30.20,30.14,0,0,3,0.00
2013-6-7,59.0,55.3,51.0,54.0,52.3,48.0,99,90,68,30.14,29.93,0,0,0,0.46
2013-6-8,70.0,60.1,52.0,64.0,56.9,52.0,100,90,73,29.96,29.64,4,0,7,0.83
2013-6-9,79.0,66.7,55.0,60.0,56.5,54.0,97,73,45,30.14,29.96,2,0,11,0.01
2013-6-10,67.0,60.2,51.0,59.0,54.6,49.0,96,83,67,30.21,30.06,0,0,3,0.03
2013-6-11,57.0,55.6,54.0,56.0,54.8,53.0,99,98,94,30.06,29.56,0,0,4,0.88
2013-6-12,62.0,58.5,54.0,57.0,55.3,53.0,99,89,78,29.78,29.53,5,1,10,0.12
2013-6-13,69.0,60.0,50.0,57.0,53.9,49.0,96,81,63,29.78,29.72,0,0,3,0.02
2013-6-14,80.0,62.9,55.0,60.0,56.1,54.0,98,81,45,29.73,29.66,4,0,6,0.02
2013-6-15,80.0,64.6,52.0,56.0,47.2,41.0,94,58,29,29.89,29.73,2,0,7,0.00
2013-6-16,74.0,62.6,49.0,60.0,53.7,46.0,93,75,49,29.90,29.70,0,0,3,0.00
2013-6-17,83.0,69.1,59.0,62.0,59.1,56.0,94,73,41,29.86,29.72,1,0,12,0.00
2013-6-18,66.0,61.1,58.0,62.0,58.2,55.0,96,90,72,29.99,29.85,0,0,1,0.02
2013-6-19,80.0,62.0,51.0,57.0,50.8,45.0,98,73,33,30.14,29.92,0,0,4,0.01
2013-6-20,76.0,59.3,48.0,53.0,48.9,45.0,94,73,36,30.24,30.14,2,0,5,0.00
2013-6-22,83.0,77.4,70.0,70.0,67.1,62.0,90,71,56,30.18,30.09,0,0,4,0.00
2013-6-23,86.0,70.9,66.0,74.0,67.8,65.0,99,91,67,30.13,29.96,4,0,6,0.87
2013-6-24,94.0,77.2,66.0,76.0,69.1,64.0,100,79,51,29.98,29.84,2,0,9,0.87
2013-6-25,92.0,79.1,70.0,72.0,69.4,63.0,94,74,50,29.88,29.70,0,0,13,0.00
2013-6-26,78.0,68.9,59.0,71.0,66.1,58.0,98,92,75,29.88,29.70,0,0,0,0.00
2013-6-27,69.0,60.8,56.0,64.0,58.7,55.0,99,94,82,29.88,29.83,0,0,3,0.00
2013-6-28,66.0,60.4,56.0,66.0,60.4,56.0,100,100,99,29.84,29.53,0,0,4,0.00
2013-6-29,83.0,70.7,64.0,73.0,68.0,64.0,100,92,72,29.68,29.53,1,0,0,0.00
2013-6-30,84.0,73.6,62.0,74.0,68.1,61.0,100,84,61,29.92,29.68,1,0,5,0.00
2013-7-1,79.0,71.1,67.0,73.0,69.7,66.0,100,95,80,30.09,29.92,0,0,0,0.00
2013-7-2,67.0,63.0,58.0,67.0,63.0,58.0,100,100,99,30.23,30.07,0,0,0,0.00
2013-7-3,83.0,67.3,58.0,72.0,64.7,58.0,100,92,68,30.21,30.09,0,0,1,0.00
2013-7-4,92.0,77.3,64.0,79.0,71.6,63.0,100,84,64,30.16,30.05,0,0,4,0.00
2013-7-5,93.0,81.8,72.0,78.0,73.4,70.0,95,77,54,30.12,29.98,1,0,5,0.00
2013-7-6,89.0,79.8,74.0,74.0,71.8,68.0,92,78,57,30.03,29.93,2,0,10,0.00
2013-7-7,88.0,76.4,66.0,74.0,68.8,64.0,95,79,55,29.98,29.90,0,0,6,0.00
2013-7-8,75.0,71.1,65.0,73.0,68.5,62.0,100,92,66,30.08,29.91,0,0,3,0.00
2013-7-9,76.0,66.6,63.0,69.0,64.3,61.0,100,93,75,30.13,30.07,0,0,0,0.00
2013-7-10,67.0,63.5,61.0,66.0,61.0,-99.9,100,95,91,30.10,29.78,0,0,0,0.00
2013-7-11,84.0,71.7,66.0,76.0,70.3,66.0,100,96,72,29.95,29.75,0,0,1,0.00
2013-7-12,84.0,68.7,62.0,69.0,62.5,59.0,99,82,52,30.22,29.95,0,0,3,0.00
2013-7-13,83.0,69.4,58.0,67.0,62.1,57.0,99,79,53,30.32,30.22,0,0,4,0.00
2013-7-14,89.0,74.9,63.0,76.0,68.5,62.0,99,82,61,30.30,30.19,0,0,1,0.00
2013-7-15,97.0,78.2,68.0,73.0,69.4,67.0,98,77,43,30.19,30.07,0,0,4,0.00
2013-7-16,94.0,78.9,68.0,75.0,70.0,65.0,91,76,50,30.16,30.09,0,0,5,0.00
2013-7-17,94.0,77.6,68.0,77.0,71.0,67.0,98,81,57,30.18,29.94,8,0,11,0.00
2013-7-18,86.0,74.4,70.0,76.0,71.2,69.0,100,90,66,30.01,29.93,1,0,3,0.00
2013-7-19,98.0,81.1,69.0,76.0,72.7,68.0,99,78,47,29.96,29.65,4,0,12,0.00
2013-7-20,91.0,80.0,72.0,72.0,67.2,-99.9,91,68,52,29.77,29.61,1,0,8,0.00
2013-7-21,81.0,70.7,62.0,69.0,62.3,55.0,95,77,49,30.01,29.77,0,0,2,0.00
2013-7-22,76.0,68.0,63.0,67.0,64.3,61.0,97,88,69,30.04,29.93,0,0,0,0.00
2013-7-23,69.0,65.4,63.0,68.0,64.7,61.0,100,98,94,29.93,29.56,0,0,0,0.99
2013-7-24,83.0,71.1,61.0,72.0,64.0,51.0,100,80,56,29.98,29.58,0,0,7,0.99
2013-7-25,72.0,63.1,56.0,61.0,55.0,49.0,92,75,61,30.12,29.98,0,0,1,0.00
2013-7-26,71.0,65.2,61.0,66.0,62.6,59.0,99,91,81,30.10,29.90,1,0,5,0.07
2013-7-27,88.0,72.0,61.0,68.0,64.4,60.0,98,79,40,30.03,29.94,0,0,4,0.02
2013-7-28,68.0,65.0,60.0,67.0,63.8,58.0,99,96,92,30.05,30.01,0,0,0,0.16
2013-7-29,80.0,66.8,63.0,70.0,65.4,63.0,100,95,71,30.05,29.99,3,0,6,0.10
2013-7-30,83.0,68.8,61.0,65.0,61.5,57.0,100,80,41,30.08,30.01,3,0,7,0.10
2013-7-31,83.0,68.0,56.0,63.0,58.7,55.0,96,75,45,30.12,30.04,0,0,1,0.00
2013-8-1,83.0,67.6,55.0,68.0,61.4,54.0,99,82,60,30.06,29.89,0,0,9,0.00
2013-8-2,82.0,69.0,64.0,70.0,65.1,61.0,100,88,56,29.89,29.74,0,0,4,0.45
2013-8-3,82.0,67.1,57.0,63.0,59.4,56.0,98,79,43,29.83,29.73,1,0,12,0.03
2013-8-4,75.0,63.8,56.0,64.0,58.1,54.0,96,83,55,29.85,29.76,0,0,8,0.01
2013-8-5,76.0,61.4,52.0,58.0,53.0,49.0,96,76,48,30.04,29.84,1,0,5,0.01
2013-8-6,84.0,61.6,49.0,58.0,51.7,46.0,94,73,39,30.15,30.03,0,0,4,0.00
2013-8-7,80.0,63.6,49.0,64.0,55.6,48.0,97,78,46,30.18,30.12,1,0,5,0.00
2013-8-8,84.0,68.6,61.0,72.0,64.3,56.0,98,87,67,30.12,29.98,0,0,4,0.00
2013-8-9,72.0,69.2,67.0,72.0,68.8,66.0,100,98,93,30.01,29.73,1,0,6,0.52
2013-8-10,83.0,70.9,59.0,68.0,59.6,50.0,100,72,36,30.00,29.75,2,0,0,0.00
2013-8-11,80.0,64.4,51.0,59.0,54.1,49.0,96,73,43,30.05,29.98,0,0,4,0.00
2013-8-12,84.0,65.8,53.0,65.0,57.5,52.0,98,77,41,30.01,29.90,0,0,2,0.00
2013-8-13,74.0,65.5,58.0,67.0,59.9,-99.9,98,85,68,29.92,29.70,0,0,5,0.00
2013-8-14,79.0,66.7,59.0,65.0,55.8,-99.9,99,74,40,29.89,29.64,4,0,13,0.00
2013-8-15,79.0,57.0,51.0,56.0,36.2,-99.9,96,66,37,30.08,29.90,3,0,9,0.00
2013-8-16,81.0,61.8,51.0,62.0,50.8,-99.9,96,75,49,30.17,30.07,0,0,1,0.00
2013-8-17,81.0,64.6,54.0,62.0,56.2,52.0,98,77,45,30.27,30.17,0,0,4,0.00
2013-8-18,76.0,63.9,53.0,66.0,57.1,-99.9,97,82,63,30.27,30.06,0,0,0,0.00
2013-8-19,84.0,65.4,56.0,66.0,48.2,-99.9,97,76,49,30.06,29.90,0,0,6,0.00
2013-8-20,89.0,70.3,60.0,67.0,60.5,-99.9,96,77,46,30.07,29.95,0,0,4,0.00
2013-8-21,89.0,71.8,60.0,70.0,64.0,58.0,96,79,51,30.13,29.99,0,0,0,0.00
2013-8-22,90.0,75.1,62.0,69.0,65.1,60.0,93,74,41,29.99,29.77,2,0,9,0.00
2013-8-23,81.0,71.4,64.0,68.0,56.7,50.0,83,62,37,30.12,29.77,4,0,9,0.00
2013-8-24,80.0,63.1,51.0,54.0,51.2,47.0,93,68,40,30.30,30.14,0,0,3,0.00
2013-8-25,84.0,62.7,52.0,58.0,51.6,-99.9,95,73,39,30.35,30.15,1,0,5,0.00
2013-8-26,77.0,67.8,59.0,69.0,63.4,55.0,99,87,68,30.15,29.86,3,0,10,0.06
2013-8-27,82.0,70.2,63.0,69.0,65.5,62.0,99,86,57,29.89,29.84,0,0,1,0.01
2013-8-28,81.0,73.1,65.0,70.0,66.1,64.0,98,80,63,30.01,29.88,0,0,3,0.02
2013-8-29,66.0,64.8,62.0,66.0,63.1,59.0,99,94,86,30.10,29.98,0,0,0,0.02
2013-8-30,86.0,69.3,61.0,69.0,63.3,58.0,96,82,55,30.04,29.77,0,0,6,0.00
2013-8-31,82.0,73.4,67.0,72.0,68.8,65.0,97,86,64,29.81,29.75,0,0,2,0.00
2013-9-1,84.0,73.5,70.0,72.0,67.9,-99.9,98,86,65,29.90,29.75,0,0,3,0.00
2013-9-2,70.0,67.3,64.0,69.0,67.0,64.0,100,99,93,29.88,29.73,0,0,4,2.13
2013-9-3,77.0,69.9,65.0,73.0,68.4,62.0,100,95,82,29.76,29.70,0,0,1,0.30
2013-9-4,80.0,67.5,58.0,62.0,58.7,55.0,98,76,48,29.88,29.75,2,0,8,0.01
2013-9-5,66.0,60.5,50.0,61.0,55.6,46.0,98,85,54,30.14,29.86,0,0,1,0.00
2013-9-6,69.0,54.6,42.0,51.0,44.8,40.0,95,73,37,30.21,30.03,0,0,4,0.00
2013-9-7,76.0,61.2,47.0,57.0,51.4,45.0,96,73,47,30.03,29.80,1,0,7,0.00
2013-9-8,67.0,59.1,48.0,59.0,48.1,-99.9,91,71,47,30.06,29.71,5,0,9,0.00
2013-9-9,68.0,54.6,40.0,54.0,45.3,38.0,95,74,41,30.19,30.06,1,0,5,0.00
2013-9-10,67.0,61.1,54.0,66.0,58.4,50.0,99,91,81,30.11,30.01,0,0,3,0.05
2013-9-11,92.0,76.6,63.0,77.0,71.0,63.0,100,85,58,30.04,29.89,0,0,5,0.19
2013-9-12,80.0,70.7,65.0,75.0,69.6,65.0,100,97,80,29.98,29.67,0,0,5,1.14
2013-9-13,70.0,64.8,58.0,70.0,64.8,57.0,100,100,97,29.73,29.58,0,0,4,1.31
2013-9-14,68.0,60.6,54.0,60.0,57.0,52.0,100,89,69,30.02,29.72,0,0,5,0.53
2013-9-15,71.0,54.9,45.0,55.0,47.9,-99.9,100,83,47,30.12,30.01,0,0,4,0.00
2013-9-16,65.0,57.4,48.0,57.0,50.3,36.0,95,78,62,30.24,29.97,2,0,5,0.01
2013-9-17,64.0,51.6,39.0,51.0,42.5,37.0,94,73,49,30.40,30.24,0,0,3,0.01
2013-9-18,51.0,43.8,42.0,46.0,42.5,41.0,98,95,93,30.29,30.10,0,0,0,0.00
2013-9-19,74.0,58.3,45.0,57.0,50.9,44.0,99,79,47,30.12,30.02,0,0,2,0.00
2013-9-20,76.0,58.9,48.0,59.0,52.6,47.0,100,82,52,30.09,30.01,0,0,1,0.00
2013-9-21,70.0,61.2,54.0,64.0,58.6,53.0,100,92,76,30.01,29.75,1,0,9,0.00
2013-9-22,70.0,63.4,53.0,65.0,56.5,-99.9,99,82,55,29.77,29.59,3,0,9,0.30
2013-9-23,59.0,51.0,43.0,47.0,43.1,40.0,92,75,59,29.96,29.77,2,0,6,0.01
2013-9-24,61.0,48.4,39.0,48.0,42.4,37.0,96,81,55,29.93,29.81,1,0,6,0.00
2013-9-25,60.0,51.2,42.0,50.0,45.6,40.0,97,82,63,29.97,29.84,0,0,5,0.00
2013-9-26,66.0,55.0,45.0,55.0,49.4,43.0,97,82,62,30.14,29.97,0,0,0,0.00
2013-9-27,70.0,60.5,53.0,58.0,53.6,50.0,94,78,62,30.24,30.13,0,0,0,0.00
2013-9-28,71.0,57.2,49.0,59.0,51.9,48.0,99,85,51,30.34,30.24,0,0,0,0.00
2013-9-29,67.0,51.5,43.0,55.0,45.6,-99.9,100,84,56,30.27,30.12,0,0,3,0.00
2013-9-30,66.0,50.8,40.0,55.0,47.2,39.0,100,88,67,30.13,29.97,0,0,1,0.00
2013-10-1,60.0,54.8,46.0,57.0,52.8,45.0,95,93,89,29.96,29.85,0,0,0,0.00
2013-10-2,78.0,63.2,50.0,62.0,55.9,49.0,99,80,52,29.90,29.76,3,0,7,0.00
2013-10-3,75.0,61.3,47.0,57.0,51.9,46.0,98,75,38,30.06,29.90,3,0,5,0.00
2013-10-4,71.0,58.7,46.0,56.0,51.5,44.0,98,80,51,30.09,30.01,0,0,0,0.00
2013-10-5,64.0,58.1,54.0,54.0,51.3,48.0,93,78,63,30.13,30.06,0,0,0,0.00
2013-10-6,55.0,52.9,51.0,53.0,48.0,42.0,98,84,70,30.27,30.13,0,0,1,0.00
2013-10-7,68.0,60.3,52.0,67.0,60.0,51.0,100,99,95,30.18,29.79,3,0,11,0.44
2013-10-8,63.0,55.0,42.0,58.0,45.6,39.0,94,73,44,30.37,29.84,2,0,8,0.16
2013-10-9,61.0,46.7,35.0,48.0,40.8,33.0,99,82,49,30.47,30.36,0,0,3,0.00
2013-10-10,64.0,47.6,35.0,53.0,42.9,34.0,99,86,45,30.36,30.18,0,0,5,0.00
2013-10-11,67.0,53.5,43.0,56.0,49.1,42.0,99,86,62,30.18,30.12,0,0,0,0.00
2013-10-12,57.0,51.0,44.0,54.0,48.3,42.0,99,91,80,30.41,30.16,0,0,2,0.00
2013-10-13,59.0,49.5,43.0,51.0,44.6,-99.9,99,87,65,30.46,30.39,0,0,3,0.00
2013-10-14,64.0,56.3,41.0,51.0,47.4,40.0,95,73,49,30.39,30.23,1,0,4,0.00
2013-10-15,64.0,56.9,52.0,54.0,52.1,49.0,96,85,68,30.27,30.20,0,0,6,0.00
2013-10-16,62.0,56.8,54.0,56.0,53.8,52.0,97,90,72,30.21,29.91,0,0,1,0.00
2013-10-17,73.0,59.9,51.0,57.0,53.1,48.0,98,81,49,29.91,29.70,3,0,10,0.00
2013-10-18,67.0,58.3,51.0,58.0,51.4,45.0,100,80,53,29.84,29.56,5,0,15,0.19
2013-10-19,65.0,53.1,40.0,51.0,44.3,38.0,92,74,45,29.92,29.75,1,0,6,0.01
2013-10-20,61.0,53.8,48.0,51.0,40.1,-99.9,97,65,34,29.95,29.65,5,1,14,0.00
2013-10-21,64.0,49.6,37.0,47.0,40.5,35.0,94,74,43,30.06,29.95,1,0,10,0.00
2013-10-22,61.0,52.0,42.0,55.0,48.1,40.0,97,87,72,29.96,29.70,1,0,7,0.00
2013-10-23,55.0,44.4,34.0,42.0,37.6,32.0,98,79,46,29.75,29.56,0,0,5,0.00
2013-10-24,52.0,44.7,34.0,41.0,32.8,29.0,92,66,42,29.80,29.58,6,1,15,0.00
2013-10-25,49.0,42.6,31.0,35.0,30.0,26.0,93,62,46,30.08,29.80,7,0,10,0.00
2013-10-26,52.0,39.7,27.0,36.0,30.2,25.0,92,71,45,30.08,29.84,2,0,12,0.00
2013-10-27,55.0,46.5,35.0,40.0,34.4,-99.9,91,66,46,30.00,29.75,3,0,11,0.00
2013-10-28,57.0,41.2,31.0,37.0,29.3,-99.9,89,68,43,30.32,29.98,5,1,14,0.00
2013-10-29,48.0,34.6,24.0,28.0,24.0,21.0,89,68,34,30.43,30.32,0,0,5,0.00
2013-10-30,50.0,35.9,27.0,32.0,27.9,23.0,88,74,48,30.32,30.15,2,0,9,0.00
2013-10-31,59.0,41.0,28.0,59.0,38.9,25.0,100,92,83,30.20,29.76,1,0,7,0.12
2013-11-1,68.0,62.1,57.0,63.0,57.6,48.0,99,86,67,29.76,29.35,5,1,15,0.21
2013-11-2,65.0,54.2,42.0,49.0,44.5,41.0,95,72,45,29.71,29.55,2,0,9,0.01
2013-11-3,50.0,40.1,34.0,49.0,27.2,-99.9,95,63,41,30.38,29.70,5,1,10,0.01
2013-11-4,41.0,33.0,25.0,21.0,19.7,17.0,82,59,40,30.68,30.38,2,0,7,0.01
2013-11-5,48.0,33.8,23.0,33.0,26.9,19.0,94,77,49,30.68,30.47,2,0,7,0.00
2013-11-6,57.0,44.9,33.0,47.0,39.6,31.0,94,83,61,30.47,29.97,3,0,7,0.00
2013-11-7,60.0,52.4,42.0,57.0,47.2,30.0,93,83,62,29.97,29.62,4,0,7,0.01
2013-11-8,45.0,38.8,30.0,30.0,26.6,24.0,84,62,45,29.98,29.74,4,0,10,0.01
2013-11-9,45.0,37.7,29.0,30.0,22.0,-99.9,76,55,38,30.11,29.97,5,1,10,0.00
2013-11-10,44.0,39.2,34.0,42.0,36.3,29.0,97,90,76,30.03,29.70,0,0,9,0.00
2013-11-11,46.0,40.1,34.0,37.0,30.6,27.0,84,70,49,30.01,29.72,6,1,13,0.00
2013-11-12,42.0,34.1,27.0,34.0,21.7,14.0,89,60,48,30.09,29.79,5,1,11,0.00
2013-11-13,35.0,27.3,19.0,17.0,14.1,11.0,83,59,39,30.22,30.07,4,0,10,0.00
2013-11-14,50.0,36.0,28.0,30.0,23.1,13.0,85,60,45,30.07,29.95,4,0,13,0.00
2013-11-15,54.0,36.9,27.0,28.0,24.6,22.0,89,66,30,30.14,30.04,1,0,7,0.00
2013-11-16,57.0,38.6,30.0,35.0,29.3,-99.9,93,73,38,30.31,30.14,0,0,3,0.00
2013-11-17,53.0,42.7,30.0,52.0,41.3,28.0,100,95,83,30.32,29.90,0,0,3,0.07
2013-11-18,63.0,54.9,46.0,59.0,48.6,36.0,100,82,48,29.90,29.45,7,1,14,0.19
2013-11-19,47.0,37.8,30.0,36.0,22.1,17.0,66,53,41,30.19,29.56,10,2,17,0.00
2013-11-20,40.0,31.4,23.0,18.0,14.6,10.0,75,51,29,30.60,30.19,7,1,11,0.00
2013-11-21,49.0,30.9,20.0,22.0,17.0,11.0,86,62,22,30.60,30.33,1,0,5,0.00
2013-11-22,40.0,35.0,28.0,37.0,30.8,20.0,94,85,72,30.33,29.76,0,0,0,0.00
2013-11-23,42.0,36.4,29.0,38.0,24.4,-99.9,97,66,35,29.81,29.67,6,1,15,0.00
2013-11-24,28.0,23.5,20.0,22.0,5.2,0.0,79,45,36,30.00,29.67,11,5,20,0.00
2013-11-25,31.0,23.7,18.0,10.0,1.8,-3.0,51,39,23,30.27,30.00,5,1,12,0.00
2013-11-26,35.0,31.3,27.0,31.0,24.1,12.0,94,76,48,30.29,30.12,1,0,5,0.00
2013-11-27,59.0,47.5,33.0,59.0,47.0,32.0,100,99,96,30.12,29.15,9,2,18,1.98
2013-11-28,41.0,30.8,22.0,40.0,17.4,6.0,96,59,36,30.36,29.25,10,3,19,0.16
2013-11-29,29.0,21.5,15.0,12.0,9.7,7.0,83,61,42,30.71,30.36,4,0,6,0.00
2013-11-30,31.0,20.5,10.0,21.0,12.5,-99.9,86,74,48,30.78,30.40,1,0,6,0.00
2013-12-1,35.0,32.6,29.0,35.0,29.5,20.0,99,88,70,30.40,30.03,0,0,0,0.28
2013-12-2,37.0,35.4,34.0,36.0,35.0,34.0,100,98,97,30.03,29.90,4,1,6,0.21
2013-12-3,44.0,37.1,30.0,40.0,35.7,29.0,100,95,80,29.90,29.82,3,0,6,0.01
2013-12-4,40.0,31.3,25.0,31.0,27.5,24.0,96,86,63,30.17,29.87,2,0,7,0.01
2013-12-5,36.0,32.0,25.0,36.0,30.9,24.0,99,95,89,30.21,29.88,0,0,0,0.03
2013-12-6,45.0,39.6,35.0,45.0,39.6,35.0,100,100,99,30.09,29.81,0,0,4,0.10
2013-12-7,35.0,28.6,28.0,20.0,12.5,-99.9,65,54,52,30.39,30.18,3,1,9,0.00
2013-12-8,31.0,25.5,20.0,20.0,15.6,12.0,81,67,50,30.54,30.38,0,0,6,0.00
2013-12-9,28.0,26.4,24.0,27.0,22.5,16.0,95,85,65,30.51,29.82,0,0,3,0.00
2013-12-10,34.0,29.6,22.0,32.0,27.1,16.0,97,90,78,29.87,29.70,0,0,0,0.01
2013-12-11,30.0,22.2,15.0,18.0,15.0,12.0,88,74,50,30.11,29.87,1,0,9,0.01
2013-12-12,21.0,14.1,6.0,18.0,4.7,-1.0,88,68,39,30.22,29.98,5,0,13,0.00
2013-12-13,25.0,14.5,6.0,12.0,3.9,-3.0,84,63,38,30.32,29.87,5,0,16,0.00
2013-12-14,16.0,7.7,-1.0,8.0,-3.2,-99.9,85,64,39,30.59,30.32,1,0,3,0.00
2013-12-15,20.0,14.9,10.0,16.0,11.5,5.0,88,86,83,30.32,29.38,7,2,12,0.00
2013-12-16,26.0,16.9,3.0,15.0,6.6,-4.0,92,66,39,30.15,29.62,7,1,15,0.00
2013-12-17,15.0,4.9,-10.0,8.0,-2.1,-17.0,86,73,48,30.26,29.98,0,0,3,0.00
2013-12-18,33.0,21.4,12.0,23.0,16.9,9.0,90,83,65,29.98,29.81,4,0,7,0.00
2013-12-19,35.0,26.0,18.0,28.0,21.5,15.0,91,83,67,30.04,29.90,1,0,5,0.00
2013-12-20,40.0,31.6,23.0,36.0,28.9,21.0,97,90,76,30.07,29.87,0,0,0,0.22
2013-12-21,40.0,35.3,33.0,39.0,33.3,-99.9,98,96,94,29.92,29.81,0,0,0,0.44
2013-12-22,35.0,31.0,28.0,34.0,30.3,27.0,99,97,94,30.05,29.85,0,0,0,0.43
2013-12-23,33.0,30.8,27.0,33.0,30.0,26.0,99,98,96,30.09,29.95,0,0,0,0.01
2013-12-24,33.0,30.0,27.0,33.0,28.5,24.0,99,94,85,30.12,30.03,0,0,0,0.01
2013-12-30,35.0,23.0,10.0,32.0,16.8,3.0,92,77,64,30.14,29.78,4,1,17,0.00
2013-12-31,16.0,6.7,0.0,10.0,1.4,-5.0,84,78,67,30.14,30.00,0,0,3,0.00
2014-1-1,22.0,10.3,-2.0,8.0,3.0,-7.0,85,73,51,30.35,30.06,5,1,13,0.00
2014-1-2,11.0,2.1,-5.0,7.0,-3.4,-11.0,84,77,71,30.37,29.95,5,1,8,0.00